Tracking 17857 objects as of 1-October-2016
HD Live streaming from Space Station
objects crossing your sky now

OPS 5058 (DMSP 5B F2)

Track OPS 5058 (DMSP 5B F2) now!
10-day predictions
OPS 5058 (DMSP 5B F2) is classified as:


NORAD ID: 5903
Int'l Code: 1972-018A
Perigee: 782.5 km
Apogee: 855.8 km
Inclination: 99.0 °
Period: 101.1 minutes
Semi major axis: 7190 km
RCS: 1.4687 m2 (large)
Launch date: March 24, 1972
Source: United States (US)
Launch site: AIR FORCE WESTERN TEST RANGE (AFWTR)
Your satellite tracking list
Your tracking list is empty





NASA's NSSDC Master Catalog

Two Line Element Set (TLE):
1 05903U 72018A   16274.79551436  .00000060  00000-0  46185-4 0  9999
2 05903  99.0265 329.4323 0050956 214.6762 145.1090 14.23965292385604
Source of the keplerian elements: AFSPC

N2YO: 785